Location: Caltech
(34.1382°N, 118.1253°W)
Time: 22:59:31
(UTC-08:00)

Iridium 91 - Visible Passes

Search period start: 03 March 2015 00:00
Search period end: 13 March 2015 01:00
Orbit: 776 x 779 km, 86.4° (Epoch: 03 March)

Date Brightness Start Highest point End Pass type
(mag) Time Alt. Az. Time Alt. Az. Time Alt. Az.
03 Mar 5.7 19:29:39 10° N 19:34:52 72° W 19:40:02 10° S visible
04 Mar 5.5 18:56:12 10° N 19:01:21 58° E 19:06:28 10° SSE visible
04 Mar 8.5 20:39:17 10° NW 20:41:36 13° W 20:43:36 10° WSW visible
05 Mar 6.3 18:23:09 10° NNE 18:27:40 30° E 18:32:15 10° SE visible
05 Mar 7.7 20:04:04 10° NNW 20:08:18 25° W 20:12:23 10° SW visible
06 Mar 6.5 19:29:54 10° NNW 19:34:55 47° W 19:39:52 10° SSW visible
07 Mar 5.5 18:56:13 10° N 19:01:27 88° E 19:06:40 10° S visible
08 Mar 5.8 19:22:54 10° NNE 19:27:52 44° E 19:32:51 10° SSE visible
08 Mar 8.3 21:04:57 10° NW 21:08:16 17° W 21:11:21 10° WSW visible
09 Mar 7.4 20:30:19 10° NNW 20:34:56 32° W 20:39:27 10° SSW visible
10 Mar 6.1 19:56:21 10° N 20:01:32 62° W 20:06:39 10° SSW visible
11 Mar 5.5 19:22:49 10° N 19:28:01 68° E 19:33:12 10° S visible
11 Mar 8.9 21:06:50 10° WNW 21:08:13 11° W 21:09:13 10° W visible
12 Mar 8.8 06:37:46 10° ESE 06:40:21 14° E 06:43:15 10° NE visible
12 Mar 8.1 20:30:57 10° NW 20:34:55 22° W 20:38:43 10° SW visible
